Starlink 30240

operational
NORAD ID: 57404 Int'l Des: 2023-102 Owner: SPXS Country: US Constellation: starlink
LEOCIRCULAR

Über Starlink 30240

Beschreibung wird geladen...

Live-Position

3D-Globus wird geladen...

Nächste Überflüge

Höhenverlauf

Altitude vs Time

uPlot chart will show altitude changes over time

Zweizeiliger Elementsatz

1 57404U 23102A 25259.91735248 .00000657 00000-0 63670-4 0 9994
2 57404 43.0040 113.3514 0000995 256.0423 104.0309 15.02534462120097
Epoch: 16. Sept. 2025 • Age: 14 hours

Aktueller Status

Höhe 571.7 km
Geschwindigkeit 7.58 km/s
Subsatellitenpunkt -43.03°S, 151.01°W
Startdatum 19. Juli 2023
Alter 2.1 years
Typ internet

Technische Details

Klassifizierung Payload
Masse 730.00 kg
Trockenmasse 700.00 kg
Gesamtmasse 730.00 kg
Länge 0.30 m
Durchmesser 4.10 m
Spannweite 29.00 m
Form Box + pan
Hersteller SPXS
Bus-Typ Starlink V2M
Phasenstatus In Orbit
Besitzer/Staat SPXS/US

Große Konstellationen

Loading constellations...